La Crosse Municipal Airport La Crosse US
ICAO: KLSE
IATA: LSE
Category: Medium
Scheduled Services: Yes

Elevation: 655 ft
TransAlt. 18000 ft.

Airport Communications:
ATIS:124.95
MINNEAPOLIS CNTR:128.6
CTAF:118.45
GND:121.8
GREEN BAY RDO:122.2
TWR:118.45
UNICOM:122.95

KLSE Zoom In..

If you have problems with the map follow the link
https://www.worldairports.se/pages/airport.php?
ICAO=KLSE

Runways:

(A) RW 03 length 5199 ft width 150 ft
---- / hdg 34

(B) RW 13 length 6050 ft width 150 ft
---- / hdg 132

(C) RW 18 length 8742 ft width 150 ft
ILS 111.10 / hdg 177

(D) RW 21 length 5199 ft width 150 ft
---- / hdg 214

(E) RW 31 length 6050 ft width 150 ft
---- / hdg 312

(F) RW 36 length 8742 ft width 150 ft
---- / hdg 357

Location; KLSE
Day. 12 / Time. 23.02 Zulu
* Altimeter: 29.99
* Temperature: -03° c. -26.6°f.
* Wind from: 330° Speed 08 kn.
Dewpoint: -05° c.
Visibility: 3 Statute Miles.
Clouds: Few 400 ft.
Clouds: Broken 1800 ft.
Clouds: Overcast 2400 ft.
Conditions: Mist.

KLSE 122302Z 33008KT 3SM BR FEW004 BKN018 OVC024 M03/M05 A2999 RMK AO2 T10281050


Wind From 330°
Speed 08 kn.

 
 
jpsmedia worldairports.se 2019   terms of use